Regional Weather Roundup
Issued by NWS

Home | Current Version | Previous Version | Text Only | Print | Product List | Glossary Off
Versions: 1 2 3 4 5 6 7 8 9 10 11 12 13 14 15 16 17 18 19 20 21 22 23 24 25 26 27 28 29 30 31 32 33 34 35 36 37 38 39 40 41 42 43 44 45 46 47 48 49 50

000
ASUS45 KTFX 280004
RWRMT
MONTANA HOURLY WEATHER ROUNDUP
NATIONAL WEATHER SERVICE GREAT FALLS MT
504 PM MST TUE JAN 27 2015

NOTE: "FAIR" INDICATES FEW OR NO CLOUDS BELOW 12000 FEET WITH NO
SIGNIFICANT WEATHER AND/OR OBSTRUCTIONS TO VISIBILITY.

* THESE STATIONS ARE NOT UNDER NWS QUALITY CONTROL. THEY DO NOT
   REPORT WEATHER SUCH AS PRECIPITATION OR FOG.

MTZ001>007-043-280100-
WEST OF THE DIVIDE
CITY           SKY/WX    TMP DP  RH WIND       PRES   REMARKS
KALISPELL      MOCLDY    34  28  79 CALM      29.93S
MISSOULA       MOCLDY    36  30  79 SE3       29.99S
BUTTE          MOCLDY    39  30  70 CALM      29.98R
MULLAN PASS    CLOUDY    39  25  57 VRB6      30.00R WCI  35
* ANACONDA     MOCLDY    45  30  56 N/A        N/A
* ESSEX        N/A       37  30  76 SE2        N/A
* LINCOLN      N/A       56  25  30 S3G8       N/A
* LOOKOUT PASS N/A       45  28  51 N6         N/A
* POLSON       N/A       43  32  65 N/A        N/A
* RONAN APT    CLOUDY    34  34 100 N/A        N/A
* SEELEY LAKE  N/A       47  29  50 N/A        N/A
* THOMP F APT  MOCLDY    38  28  67 SE7G15     N/A   WCI  33
$$

MTZ008-052>055-280100-
SOUTHWEST MONTANA
CITY           SKY/WX    TMP DP  RH WIND       PRES   REMARKS
BOZEMAN        MOCLDY    37  30  76 CALM      29.95F
DILLON         MOCLDY    48  28  46 SW10      29.97S
* W YELLOWSTON MOCLDY    39  29  67 SW4G15     N/A
* THREE FORKS  MOCLDY    43  43 100 N/A        N/A
* BOULDER HILL N/A       47  24  40 S6         N/A
* MONIDA PASS  N/A       34  30  85 SE19       N/A   WCI  23
* RAYNOLDS PAS N/A       40  24  53 S20G27     N/A   WCI  30
* WHITEHALL    N/A       54  30  40 SW6        N/A
* WISE RIVER   N/A       38  27  65 W4G9       N/A
$$

MTZ009>010-012-014-046-048-049-054-280100-
EAST SLOPES AND CENTRAL MONTANA
CITY           SKY/WX    TMP DP  RH WIND       PRES   REMARKS
CUT BANK       CLOUDY    54  21  27 W17       29.82R
GREAT FALLS    MOCLDY    54  27  35 S12       29.85S
HELENA         PTCLDY    45  34  65 CALM      29.92F
MALMSTROM AFB  MOCLDY    57  27  32 SW14      29.84F
* DEARBORN     N/A       61  23  23 S6G11      N/A
* EAST GLACIER N/A       50  19  29 W11        N/A
* MONARCH      N/A       55  15  20 S4         N/A
* PENDROY      N/A       54  23  30 NW13       N/A
* ROGERS PASS  N/A       50  22  33 E6G15      N/A
* SWEET GRASS  N/A       52  23  32 W13G19     N/A
$$

MTZ011-013-016-021-035-040-045-047-050-051-280100-
NORTH CENTRAL MONTANA
CITY           SKY/WX    TMP DP  RH WIND       PRES   REMARKS
HAVRE          CLOUDY    48  36  63 W10       29.78S
LEWISTOWN      CLOUDY    54  30  40 CALM      29.85F
* N BAR RANCH  CLEAR     55  23  29 W7        29.86F
* CHESTER      N/A       46  31  56 N/A        N/A
* DENTON       N/A       54  27  35 W9         N/A
* GEYSER       N/A       58  20  23 NW6G12     N/A
* JUDITH GAP   N/A       50  26  39 SW6        N/A
* LOMA         N/A       61  30  31 SW11G17    N/A
$$

MTZ017>020-022>027-061-062-280100-
NORTHEAST MONTANA
CITY           SKY/WX    TMP DP  RH WIND       PRES   REMARKS
GLASGOW        CLOUDY    39  34  82 E7        29.78F WCI  34
GLENDIVE       MOCLDY    48  37  66 CALM      29.82F
JORDAN         CLOUDY    41  36  82 CALM      29.80S
SIDNEY         CLOUDY    43  36  76 S7        29.82R
WOLF POINT     CLOUDY    45  37  74 SW3       29.79F
* BEAVER HILL  N/A       49  34  56 S9         N/A
* CIRCLE       N/A       50  38  64 N/A        N/A
* LINDSAY DVD  N/A       54  31  42 W6         N/A
* NAVAJO       N/A       42  32  68 W12        N/A
* SACO         N/A       44  36  74 E6         N/A
$$

MTZ028>042-056>058-280100-
SOUTHCENTRAL AND SOUTHEAST MONTANA
CITY           SKY/WX    TMP DP  RH WIND       PRES   REMARKS
BAKER          PTCLDY    48  34  59 NW3       29.83F
BILLINGS       CLOUDY    55  30  39 SW13      29.87S
LIVINGSTON     CLOUDY    55  27  34 SW23G33   29.91F
MILES CITY     PTCLDY    57  36  46 CALM      29.80F
* LAUREL APT   CLOUDY    54  27  35 N/A        N/A
* ROUNDUP APT  CLOUDY    57  27  32 N/A        N/A
* ALZADA       N/A       58  31  36 SW1        N/A
* HYSHAM       N/A       59  24  26 W6         N/A
* REED POINT   N/A       47  32  56 SW1        N/A
* ROSCOE HILL  N/A       57  14  18 SW9G16     N/A
$$

REGIONAL REPORTS...DAKOTAS
CITY           SKY/WX    TMP DP  RH WIND       PRES   REMARKS
WILLISTON      MOCLDY    36  32  85 CALM      29.79S
DICKINSON      MOCLDY    48  36  63 W5        29.79F
CROSBY         CLEAR     39  39 100 W5        29.78F WCI  35
WATFORD CITY   CLEAR     43  37  79 CALM      29.78S
BISMARCK       MOCLDY    43  32  65 SE6       29.82S
GRAND FORKS    CLOUDY    32  30  92 S15G24    29.94S WCI  22
FARGO          CLOUDY    34  28  79 SE18G28   29.96F WCI  23
BUFFALO SD     CLEAR     61  30  31 N7        29.78S
RAPID CITY     CLEAR     57  30  36 E3        29.85F
$$

REGIONAL REPORTS...WYOMING/IDAHO/WASHINGTON
CITY           SKY/WX    TMP DP  RH WIND       PRES   REMARKS
GILLETTE       PTCLDY    52  28  40 S6        29.88F
SHERIDAN       MOCLDY    45  30  56 CALM      29.88S
CODY           CLOUDY    43  32  65 N5        29.95S
YELLOWSTONE LA MOCLDY    37  25  62 VRB7      30.17R WCI  32
SALMON         MOCLDY   N/A N/A N/A CALM      30.07S
MULLAN PASS    CLOUDY    39  25  57 VRB6      30.00S WCI  35
SAND POINT     FOG      N/A N/A N/A CALM      30.00S VSB M1/4
SPOKANE        MOCLDY    36  36 100 CALM      29.99R

$$




USA.gov is the U.S. government's official web portal to all federal, state and local government web resources and services.